TimeEST,TemperatureF,Dew PointF,Humidity,Sea Level PressureIn,VisibilityMPH,Wind Direction,Wind SpeedMPH,Gust SpeedMPH,PrecipitationIn,Events,Conditions,WindDirDegrees,DateUTC
12:15 AM,59.0,44.6,59,30.20,10.0,South,5.8,-,N/A,,Clear,180,2012-12-04 05:15:00
12:35 AM,57.2,44.6,63,30.21,10.0,South,4.6,-,N/A,,Clear,170,2012-12-04 05:35:00
12:55 AM,57.2,44.6,63,30.20,10.0,SSE,3.5,-,N/A,,Mostly Cloudy,150,2012-12-04 05:55:00
1:15 AM,55.4,44.6,67,30.20,10.0,South,3.5,-,N/A,,Mostly Cloudy,170,2012-12-04 06:15:00
1:35 AM,57.2,46.4,67,30.21,10.0,South,4.6,-,N/A,,Overcast,170,2012-12-04 06:35:00
1:55 AM,57.2,46.4,67,30.20,10.0,South,5.8,-,N/A,,Overcast,170,2012-12-04 06:55:00
2:15 AM,59.0,46.4,63,30.20,10.0,South,5.8,-,N/A,,Overcast,170,2012-12-04 07:15:00
2:35 AM,57.2,46.4,67,30.20,10.0,South,4.6,-,N/A,,Overcast,180,2012-12-04 07:35:00
2:55 AM,59.0,46.4,63,30.20,10.0,South,3.5,-,N/A,,Overcast,190,2012-12-04 07:55:00
3:15 AM,59.0,46.4,63,30.20,10.0,South,3.5,-,N/A,,Overcast,180,2012-12-04 08:15:00
3:55 AM,59.0,46.4,63,30.20,10.0,South,3.5,-,N/A,,Overcast,170,2012-12-04 08:55:00
4:15 AM,59.0,46.4,63,30.19,10.0,South,3.5,-,N/A,,Overcast,170,2012-12-04 09:15:00
4:35 AM,59.0,46.4,63,30.19,10.0,South,3.5,-,N/A,,Mostly Cloudy,170,2012-12-04 09:35:00
4:55 AM,59.0,46.4,63,30.18,10.0,South,4.6,-,N/A,,Overcast,170,2012-12-04 09:55:00
5:15 AM,59.0,46.4,63,30.19,10.0,SSE,3.5,-,N/A,,Overcast,160,2012-12-04 10:15:00
5:35 AM,59.0,48.2,67,30.18,10.0,South,3.5,-,N/A,,Overcast,170,2012-12-04 10:35:00
5:55 AM,59.0,48.2,67,30.19,10.0,South,3.5,-,N/A,,Overcast,170,2012-12-04 10:55:00
6:15 AM,59.0,48.2,67,30.19,10.0,South,3.5,-,N/A,,Overcast,170,2012-12-04 11:15:00
6:35 AM,59.0,48.2,67,30.19,10.0,South,4.6,-,N/A,,Overcast,170,2012-12-04 11:35:00
6:55 AM,59.0,48.2,67,30.20,10.0,South,3.5,-,N/A,,Scattered Clouds,180,2012-12-04 11:55:00
7:15 AM,59.0,48.2,67,30.20,10.0,South,3.5,-,N/A,,Mostly Cloudy,180,2012-12-04 12:15:00
7:35 AM,59.0,48.2,67,30.21,10.0,South,3.5,-,N/A,,Mostly Cloudy,180,2012-12-04 12:35:00
7:55 AM,57.2,50.0,77,30.21,5.0,SSE,3.5,-,N/A,Rain,Rain,160,2012-12-04 12:55:00
8:15 AM,55.4,51.8,88,30.21,10.0,SSE,3.5,-,N/A,Rain,Light Rain,160,2012-12-04 13:15:00
8:35 AM,57.2,51.8,82,30.21,10.0,South,4.6,-,N/A,Thunderstorm,Overcast,170,2012-12-04 13:35:00
8:55 AM,59.0,50.0,72,30.21,10.0,South,4.6,-,N/A,,Overcast,180,2012-12-04 13:55:00
9:15 AM,59.0,51.8,77,30.21,10.0,South,6.9,-,N/A,,Overcast,190,2012-12-04 14:15:00
9:35 AM,59.0,51.8,77,30.21,10.0,South,6.9,-,N/A,,Overcast,190,2012-12-04 14:35:00
9:55 AM,59.0,51.8,77,30.22,10.0,South,6.9,-,N/A,,Overcast,190,2012-12-04 14:55:00
10:15 AM,60.8,51.8,72,30.22,10.0,South,8.1,-,N/A,,Mostly Cloudy,190,2012-12-04 15:15:00
10:35 AM,60.8,51.8,72,30.22,10.0,SSW,5.8,-,N/A,,Clear,200,2012-12-04 15:35:00
10:55 AM,64.4,51.8,64,30.21,10.0,SSW,6.9,-,N/A,,Clear,200,2012-12-04 15:55:00
11:15 AM,64.4,51.8,64,30.21,10.0,SSW,6.9,-,N/A,,Scattered Clouds,210,2012-12-04 16:15:00
11:35 AM,66.2,51.8,60,30.20,10.0,SW,10.4,16.1,N/A,,Mostly Cloudy,220,2012-12-04 16:35:00
11:55 AM,64.4,51.8,64,30.19,10.0,SSW,9.2,17.3,N/A,,Overcast,200,2012-12-04 16:55:00
12:15 PM,66.2,51.8,60,30.18,10.0,SW,6.9,-,N/A,,Overcast,220,2012-12-04 17:15:00
12:35 PM,68.0,51.8,56,30.17,10.0,SSW,5.8,-,N/A,,Overcast,210,2012-12-04 17:35:00
1:15 PM,64.4,53.6,68,30.16,10.0,SW,6.9,10.4,N/A,,Overcast,230,2012-12-04 18:15:00
1:35 PM,64.4,53.6,68,30.15,10.0,SSW,9.2,-,N/A,,Overcast,200,2012-12-04 18:35:00
1:55 PM,66.2,51.8,60,30.14,10.0,SSW,10.4,16.1,N/A,,Overcast,210,2012-12-04 18:55:00
2:15 PM,66.2,51.8,60,30.13,10.0,SSW,6.9,-,N/A,,Overcast,200,2012-12-04 19:15:00
2:35 PM,68.0,51.8,56,30.12,10.0,SSW,8.1,-,N/A,,Overcast,200,2012-12-04 19:35:00
2:55 PM,68.0,51.8,56,30.11,10.0,SSW,6.9,-,N/A,,Overcast,200,2012-12-04 19:55:00
3:15 PM,68.0,51.8,56,30.11,10.0,SSW,6.9,-,N/A,,Overcast,210,2012-12-04 20:15:00
3:35 PM,68.0,51.8,56,30.11,10.0,SSW,6.9,-,N/A,,Overcast,210,2012-12-04 20:35:00
3:55 PM,68.0,51.8,56,30.12,10.0,WSW,5.8,-,N/A,,Overcast,240,2012-12-04 20:55:00
4:15 PM,68.0,50.0,52,30.13,10.0,SW,10.4,-,N/A,,Overcast,220,2012-12-04 21:15:00
4:35 PM,66.2,50.0,56,30.13,10.0,SW,10.4,20.7,N/A,,Overcast,230,2012-12-04 21:35:00
4:55 PM,66.2,51.8,60,30.13,10.0,SW,6.9,-,N/A,,Overcast,230,2012-12-04 21:55:00
5:15 PM,62.6,51.8,68,30.14,10.0,WSW,6.9,-,N/A,Rain,Rain,240,2012-12-04 22:15:00
5:35 PM,60.8,53.6,77,30.16,7.0,WSW,9.2,-,N/A,Rain,Rain,250,2012-12-04 22:35:00
5:55 PM,60.8,55.4,82,30.15,10.0,Calm,Calm,-,N/A,Rain,Light Rain,0,2012-12-04 22:55:00
6:15 PM,59.0,55.4,88,30.16,10.0,SSW,4.6,-,N/A,Rain,Rain,210,2012-12-04 23:15:00
6:35 PM,59.0,55.4,88,30.15,10.0,Calm,Calm,-,N/A,,Light Drizzle,0,2012-12-04 23:35:00
6:55 PM,59.0,55.4,88,30.16,10.0,Calm,Calm,-,N/A,,Mostly Cloudy,0,2012-12-04 23:55:00
7:15 PM,59.0,55.4,88,30.15,10.0,Calm,Calm,-,N/A,,Overcast,0,2012-12-05 00:15:00
7:35 PM,57.2,55.4,94,30.15,10.0,Calm,Calm,-,N/A,,Overcast,0,2012-12-05 00:35:00
7:55 PM,59.0,55.4,88,30.15,10.0,Calm,Calm,-,N/A,,Overcast,0,2012-12-05 00:55:00
8:15 PM,59.0,55.4,88,30.15,10.0,Calm,Calm,-,N/A,Rain,Light Rain,0,2012-12-05 01:15:00
8:35 PM,59.0,55.4,88,30.15,10.0,SW,3.5,-,N/A,,Overcast,220,2012-12-05 01:35:00
8:55 PM,59.0,53.6,82,30.15,10.0,SSW,4.6,-,N/A,,Overcast,210,2012-12-05 01:55:00
9:15 PM,59.0,53.6,82,30.15,10.0,Calm,Calm,-,N/A,,Mostly Cloudy,0,2012-12-05 02:15:00
9:35 PM,59.0,53.6,82,30.15,10.0,Calm,Calm,-,N/A,,Overcast,0,2012-12-05 02:35:00
9:55 PM,59.0,53.6,82,30.15,10.0,Calm,Calm,-,N/A,Rain,Rain,0,2012-12-05 02:55:00
10:15 PM,59.0,53.6,82,30.16,10.0,Calm,Calm,-,N/A,,Overcast,0,2012-12-05 03:15:00
10:35 PM,57.2,53.6,88,30.16,10.0,NNW,4.6,-,N/A,,Overcast,330,2012-12-05 03:35:00
10:55 PM,55.4,51.8,88,30.18,10.0,NNE,16.1,24.2,N/A,,Light Drizzle,20,2012-12-05 03:55:00
11:15 PM,50.0,50.0,100,30.20,5.0,NNE,12.7,20.7,N/A,Rain,Rain,20,2012-12-05 04:15:00
11:35 PM,50.0,48.2,94,30.21,7.0,NNE,11.5,-,N/A,Rain,Heavy Rain,20,2012-12-05 04:35:00
11:55 PM,50.0,46.4,87,30.22,4.0,NNE,13.8,24.2,N/A,Rain,Rain,20,2012-12-05 04:55:00